Track IRIDIUM 44 now! 10-day predictions IRIDIUM 44 is classified as:
1 25078U 97077B 22224.25235179 .00000239 00000-0 71702-4 0 9993 2 25078 86.3960 299.5785 0002426 142.3465 217.7903 14.38530982294120